Location: Buch
(49.7331°N, 12.1098°E)
Time: 01:21:00
(UTC+00:00)

Cosmos 1821 Rocket - Pass Details

Date: 12 May 2021
Orbit: 945 x 1004 km, 82.9° (Epoch: 23 June)

Event Time Altitude Azimuth Distance (km) Brightness Sun altitude
Rises 22:10:08 0° 352° (N) 3,745 8.6 -20.7°
Reaches altitude 10° 22:12:45 10° 357° (N) 2,792 7.5 -20.8°
Maximum altitude 22:19:03 55° 75° (ENE) 1,195 4.4 -21.0°
Enters shadow 22:21:47 33° 136° (SE) 1,622 4.7 -21.1°
